Horse Shoe, NC (28742)

11:18 AM EDT on July 24, 2016 (GMT -0400)
Forge Mountain | | Change Station
Active Advisory: Air Quality Alert

Elev 2359 ft 35.37 °N, 82.60 °W | Updated 11 minutes ago

Clear
Clear
81.9 °F
Feels Like 87 °F
N
0.0
Wind Variable Wind from SSW

Today
High -- | Low -- °F
--% Chance of Precip.
Yesterday
High -- | Low -- °F
Precip. -- in
Pressure 30.06 in
Visibility 10.0 miles
Clouds Clear
Heat Index 87 °F
Dew Point 73 °F
Humidity 74%
Rainfall 0.00 in
Snow Depth Not available.
6:33 AM 8:39 PM
Waning Gibbous, 75% visible
METAR KAVL 241454Z 34006KT 10SM CLR 27/20 A3014 RMK AO2 SLP177 T02720200 50001
Pressure 30.06 in
Visibility 10.0 miles
Clouds Clear
Heat Index 87 °F
Dew Point 73 °F
Humidity 74%
Rainfall 0.00 in
Snow Depth Not available.
6:33 AM 8:39 PM
Waning Gibbous, 75% visible
METAR KAVL 241454Z 34006KT 10SM CLR 27/20 A3014 RMK AO2 SLP177 T02720200 50001

10-Day Weather Forecast

Almanac

Astronomy

Jul. 24, 2016 Rise Set
Actual Time
Civil Twilight
Nautical Twilight
Astronomical Twilight
Moon
Length of Visible Light
Length of Day
Tomorrow will be .
, % of the Moon is Illuminated

Today's Extremes

State Highs State Lows

Community

WunderPhotos

Upload Photos

1,927,076 photos uploaded!

WunderBlog® & News

Nearby

Air Quality

  Air Quality AQ Index Pollutant
Not available.

Snow Depth

Station Depth Elevation

Earthquake Activity

City Distance Mag. Time & Date
Minimum magnitude displayed is 2.5.

Coastal Water Temperatures

Place Temperature

Stations

Nearby Weather Stations

Station Location Temp. Windchill Dew Point Humidity Wind Precip. Elev Updated Type
                   

Watches & Warnings

Air Quality Alert
Issued: 7:31 AM EDT Jul. 24, 2016 – National Weather Service

... Air quality alert in effect for the mountain ridgetops until
midnight EDT tonight...

The North Carolina department of environmental quality in Raleigh NC
has issued a code Orange air quality action day for ground level
ozone... in effect until midnight EDT tonight.

An air quality action day means that ground level ozone
concentrations within the region may approach or exceed unhealthy
standards. For additional information... please visit the North
Carolina division of air quality web site at
www.Ncair.Org/airaware/forecast/.



731 am EDT sun Jul 24 2016

... Air quality alert in effect for the mountain ridgetops until
midnight EDT tonight...

The North Carolina department of environmental quality in Raleigh NC
has issued a code Orange air quality action day for ground level
ozone... in effect until midnight EDT tonight.

An air quality action day means that ground level ozone
concentrations within the region may approach or exceed unhealthy
standards. For additional information... please visit the North
Carolina division of air quality web site at
www.Ncair.Org/airaware/forecast/.